Location: Handeloh
(53.2500°N, 9.8330°E)
Time: 03:34:05
(UTC+01:00)

S-56A Canister/Altair - Pass Details

Date: 19 November 2019
Orbit: 633 x 2499 km, 38.9° (Epoch: 04 December)

Event Time Altitude Azimuth Distance (km) Brightness Sun altitude
Rises 16:23:47 0° 209° (SSW) 5,338 13.1 -1.4°
Reaches altitude 10° 16:29:12 10° 193° (SSW) 3,951 11.9 -2.1°
Maximum altitude 16:34:48 17° 158° (SSE) 3,000 10.7 -2.8°
Drops below altitude 10° 16:39:22 10° 122° (ESE) 3,107 10.4 -3.4°
Sets 16:42:52 0° 102° (ESE) 3,766 10.6 -3.8°
